Wind_Speed
15 16 17 19 21 22 24 24 28 28 31 31 31 29 26 23 25 23 21 19 19 22
14 15 16 19 20 22 24 24 25 29 32 34 33 31 28 28 30 27 26 22 20 16
14 16 17 20 23 23 22 25 27 28 30 31 34 33 33 31 32 31 32 28 27 23
18 16 16 16 20 24 32 26 26 27 29 30 30 33 32 33 37 35 36 38 34 31
12 19 23 19 18 27 33 35 26 27 30 30 32 33 33 32 34 36 37 38 42 39
7 12 18 20 18 22 29 28 33 30 29 31 32 29 33 34 32 35 37 38 37 41
13 13 14 17 19 20 23 25 27 30 30 30 31 34 32 33 32 36 35 35 39 39
12 13 13 15 18 19 21 22 23 26 29 30 31 32 30 32 35 34 32 35 36 37
11 11 13 15 16 18 19 22 23 25 28 31 31 29 28 27 30 32 32 33 35 35
10 12 13 15 16 17 19 20 23 24 27 31 33 31 23 24 27 29 33 34 34 34
11 12 13 14 15 16 17 19 21 22 23 27 32 29 27 22 23 27 30 33 35 32
10 12 13 14 14 14 15 16 17 18 23 21 28 30 27 23 23 24 26 30 33 34
11 11 12 13 14 13 13 13 12 15 20 22 23 27 29 24 22 24 23 23 27 29
10 11 10 10 9 10 12 11 10 12 15 20 22 23 25 25 25 20 21 22 24 26
Wind_Direction
30 28 21 16 10 6 2 4 5 8 10 11 11 9 9 7 359 352 342 332 322 317
35 29 26 24 18 14 11 10 10 15 16 18 16 13 17 16 11 8 6 358 348 335
38 37 38 35 30 24 18 17 18 17 20 20 19 17 22 22 18 20 17 11 8 4
53 48 44 41 35 36 35 25 23 22 20 23 18 21 25 25 23 22 23 22 18 12
48 49 44 39 42 39 36 36 32 28 25 23 27 24 27 25 25 25 23 23 24 17
57 48 45 39 37 44 37 36 33 36 27 27 28 28 28 31 26 28 25 25 27 23
56 52 45 43 46 45 42 40 34 32 30 31 31 31 31 30 28 34 28 26 33 29
64 57 54 52 48 48 48 46 40 34 31 30 30 32 31 34 32 32 26 29 31 33
72 68 61 58 56 52 50 46 43 41 34 29 26 27 33 36 36 36 30 29 28 30
76 71 66 64 58 55 53 51 46 41 38 33 26 24 31 37 40 37 35 32 30 29
80 76 69 65 64 59 56 53 50 45 42 37 30 27 31 37 38 39 36 34 33 32
82 77 72 66 60 59 60 56 52 48 44 42 37 31 32 35 36 37 36 32 33 31
87 82 76 71 64 61 59 58 55 53 41 43 41 34 34 35 36 36 33 32 32 33
98 87 77 73 67 65 63 57 57 61 53 47 39 34 32 31 34 36 33 30 25 30
Height
817 816 816 813 810 806 800 795 791 784 779 772 766 761 755 750 745 739 733 728 723 719
819 818 817 814 812 807 804 799 794 787 780 774 770 765 758 751 746 740 734 728 723 717
822 820 818 815 812 810 806 801 796 791 786 780 775 769 762 756 751 745 738 732 725 719
823 821 819 817 815 812 806 802 800 796 791 785 780 774 767 761 754 750 744 736 730 724
824 822 821 818 816 812 808 806 805 800 795 790 785 780 773 768 763 756 751 745 737 733
824 824 822 821 818 814 811 810 809 805 801 796 791 786 779 773 771 763 759 753 749 743
827 825 825 823 821 818 816 814 813 810 807 801 797 791 786 780 777 769 767 765 756 754
827 827 827 825 824 822 821 819 817 814 810 806 801 798 793 788 782 777 779 771 765 763
828 829 828 827 827 826 824 823 821 818 815 809 806 803 800 796 791 789 786 779 775 771
830 830 830 830 830 829 827 827 825 822 819 815 813 808 806 803 799 797 793 788 783 779
832 832 833 833 832 832 831 830 829 827 825 822 819 814 811 809 806 802 799 797 792 790
834 835 835 835 835 834 834 833 833 832 829 827 825 821 816 813 810 808 806 803 799 796
836 837 837 837 837 837 836 836 836 834 832 831 829 826 822 818 816 813 811 810 807 804
837 838 838 839 839 839 838 838 837 836 835 834 833 831 828 825 821 819 816 814 811 809